Regional Weather Roundup
Issued by NWS

Home | Current Version | Previous Version | Text Only | Print | Product List | Glossary On
Versions: 1 2 3 4 5 6 7 8 9 10 11 12 13 14 15 16 17 18 19 20 21 22 23 24 25 26 27 28 29 30 31 32 33 34 35 36 37 38 39 40 41 42 43 44 45 46 47 48 49 50
000
ASUS45 KREV 290210
RWRNV
NEVADA REGIONAL WEATHER ROUNDUP
NATIONAL WEATHER SERVICE RENO NV
700 PM PDT THU APR 28 2016

NOTE: "FAIR" INDICATES FEW OR NO CLOUDS BELOW 12,000 FEET WITH NO
SIGNIFICANT WEATHER AND/OR OBSTRUCTIONS TO VISIBILITY.

NVZ001-003-004-290300-
WESTERN NEVADA

CITY           SKY/WX    TMP DP  RH WIND       PRES   REMARKS
RENO           MOCLDY    59  30  33 N15       29.94S
CARSON CITY    MOCLDY    55  27  33 N6        29.95R
MINDEN         MOCLDY    54  30  40 W6        29.96R
SLIDE MTN        N/A     30  27  86 N10         N/A
PYRAMID LAKE     N/A     61 N/A N/A NW1         N/A
FALLON         PTCLDY    58  34  40 NE6       29.91S
LOVELOCK       MOCLDY    61  31  32 NE10      29.89F
$$

NVZ002-CAZ072-073-290300-
NORTHERN AND CENTRAL SIERRA

CITY           SKY/WX    TMP DP  RH WIND       PRES   REMARKS
S. LAKE TAHOE  MOCLDY    44  34  67 CALM      29.99R
TRUCKEE        PTCLDY    50  30  46 NW5       30.00R
SQUAW VLY 8000   N/A     37  28  70 NE9         N/A
BLUE CANYON    LGT RAIN  51  37  58 W6        29.99R
MAMMOTH LAKES  MOCLDY    43  28  54 N7        30.00R
BRIDGEPORT     CLOUDY    44  28  53 E6        29.97R
$$

NVZ030-031-036-290300-
NORTHERN NEVADA

CITY           SKY/WX    TMP DP  RH WIND       PRES   REMARKS
ELKO           CLOUDY    50  34  54 W16       29.86R
WINNEMUCCA     CLEAR     55  34  45 NW14      29.90S
WENDOVER       MOCLDY    54  39  58 E6        29.81R
$$

NVZ035-037-290300-
CENTRAL NEVADA

CITY           SKY/WX    TMP DP  RH WIND       PRES   REMARKS
ELY            CLOUDY    43  35  73 N13       29.85R
EUREKA           N/A     44  37  76 CALM      29.89R
$$

NVZ013-014-290300-
SOUTH CENTRAL NEVADA

CITY           SKY/WX    TMP DP  RH WIND       PRES   REMARKS
TONOPAH        CLOUDY    50  32  50 N22       29.89R
$$

NVZ017-020-022-290300-
SOUTHERN NEVADA

CITY           SKY/WX    TMP DP  RH WIND       PRES   REMARKS
LAS VEGAS      CLOUDY    58  54  86 E3        29.72R
N. LAS VEGAS   CLOUDY    58  49  72 SE5       29.75R
NELLIS AFB     NOT AVBL
HENDERSON      CLOUDY    56  47  71 E5        29.78R
MERCURY        CLOUDY    60  40  47 NW9       29.77R
$$



USA.gov is the U.S. government's official web portal to all federal, state and local government web resources and services.